Showing default

SHIYAN 24C 01, 58650

Orbit data source: Space-Track

SHIYAN 24C 01, 58650 is a payload satellite owned by CASC (CN) in SSO that was launched on Mon, 25 Dec 2023 UTC via a CHANG ZHENG 11 launch vehicle from the South China Sea Launch Area (SCSLA). Payload-class satellites include a variety of spacecraft equipped with specific instruments for various scientific and technological missions. These include communications satellites like Starlink; space stations such as the ISS; scientific satellites like the Hubble; Earth observation satellites from companies like Planet Labs, Umbra, and HawkEye 360; GPS; miniature CubeSats for education and research; and military/defense satellites.

Loading next visibility...
Identifier
58650, 2023-206A
Orbit
SSO
Country
Flag of CNCN / PRC
Related business
Manufacturer
SECM?
Mission
Operational Defense Technology
Bus & Motor
Unknown
Mass
~80 kg wet, ~80 kg dry
Launch date (UTC)
2023-12-25 (2 years ago)
Launch vehicle
CHANG ZHENG 11
Launch site
South China Sea Launch Area (SCSLA)
Object type
Payload
Rocket body
Debris
Shape & HBR
Box + 4 Pan, 4.0 m
Radar Cross Section
8.634 m², Medium (>0.1 m² and < 1m²)

Expand to show TLE details & history
Last TLE update: 14 hours ago

TLE from 14 hours ago
0 SHIYAN 24C 01
1 58650U 23206A   25306.68011536  .00003086  00000-0  27059-3 0  9996
2 58650  97.3791 281.4583 0002093 186.6950 173.4246 14.97326243101406
Epoch: 2025-11-02T16:19Z
TLE epoch observation values (Epoch: 2025-11-02T16:19:21.967Z)
Latitude
0.00007°
Longitude
-5.57561°
Altitude
579.668 km
Speed
7.57 km/s
True Right ascension
18h 45m 49s
True Declination
0° 00' 00"
Sunlit
Object was in daylight at epoch
Visualization orbit readout
Latitude
Unknown
Longitude
Unknown
Altitude
Unknown
Speed
Unknown
Apparent Right ascension
Unknown
Apparent Declination
Unknown
Sunlit
N/A
Visualization observer readout
Local Sidereal Time
02:03:32
Azimuth
Unknown
Elevation
Unknown
Doppler factor
Unknown
Orbital elements
Apogee altitude
573.611 km
Perigee altitude
570.702 km
Semi-major axis
6,950.294 km
Eccentricity
0.00021
Inclination
97.3791°
RAAN
281.4583°
Arg. of periapsis
186.695°
True anomaly
173.42735°
Mean anomaly
173.4246°
Eccentric anomaly
173.42597°
Mean motion
3.74575 °/min
Orbital period
96.11 mins
BSTAR
0.00027059
Loading maneuver chart data...
Computing Atmospheric mass density...
Loading historical data...
Loading historical data...
Loading historical data...
Loading historical data...
Loading historical data...
Loading historical data...
Loading historical data...
Other satellites on launch #206 in the year 2023 (2023-12-25 UTC)

Documentation

Showing up to 5 results
|